logo
Rechercher aéroport 
image banner adimage banner adimage banner ad
image banner ad

48VT - Cub Cove

Situé à Colchester, United States

ICAO - 48VT, IATA -

Données fournies par Airmate  

Information générale

Coordonnées: N44°33'13" W73°13'53"
Élévation : 95 feet MSL.
 
Voir autres Aéroports à Vermont

Données opérationnelles

Special qualification required
Heure actuelle UTC:
Heure actuelle locale:
METAR: KBTV 241925Z 36016G22KT 5SM -RA BR BKN008 BKN012 OVC025 18/16 A2964 RMK AO2 P0003 T01780161
TAF: KBTV 241904Z 2419/2518 34015KT P6SM -SHRA SCT008 OVC013 TEMPO 2419/2421 35018G24KT 2SM -SHRA BKN008 OVC015 FM242100 35016G24KT P6SM VCSH OVC030 FM242200 34012KT P6SM VCSH OVC030 FM250000 16002KT P6SM BKN070 TEMPO 2504/2506 4SM BR SCT002 FM251100 20007KT P6SM FEW240
Voir NOTAMs / SUP AIP / TFR affectant cet aéroport [VIEW]
Fréquences de communication: [VIEW]

Pistes:

Identifiant RWYQFULongueur (ft)Largeur (ft)SurfaceLDA (ft)
05W4000300WATER
23W4000300WATER

Coordonnées de l'aéroport

Adresse: Colchester United States

Vue satellite de 48VT